Regional Weather Roundup
Issued by NWS Bismarck, ND

Home | Current Version | Previous Version | Text Only | Print | Product List | Glossary On
Versions: 1 2 3 4 5 6 7 8 9 10 11 12 13 14 15 16 17 18 19 20 21 22 23 24 25 26 27 28 29 30 31 32 33 34 35 36 37 38 39 40 41 42 43 44 45 46 47 48 49 50
000
ASUS43 KBIS 210202
RWRBIS

NWR BROADCAST TEXT
NATIONAL WEATHER SERVICE BISMARCK ND
900 PM CDT FRI APR 20 2018

NOTE: "FAIR" INDICATES FEW OR NO CLOUDS BELOW 12,000 FEET WITH NO
SIGNIFICANT WEATHER AND/OR OBSTRUCTIONS TO VISIBILITY.


CITY           SKY/WX    TMP DP  RH WIND       PRES   REMARKS
WILLISTON      CLEAR     57  29  34 SE8       30.13R
MINOT          PTCLDY    51  36  56 SE12      30.21R
MINOT AFB      NOT AVBL
BISMARCK       PTCLDY    51  32  48 S12       30.28R
DICKINSON      PTCLDY    49  36  61 S16       30.17R
GARRISON         N/A     45  31  58 S9        30.22R
HETTINGER ARPT CLOUDY    46  37  71 S23G29    30.21R
JAMESTOWN      CLOUDY    45  37  73 S6        30.31R
CARRINGTON     CLOUDY    45  39  81 S9        30.33R
HAZEN          FAIR      50  32  50 SE12      30.24R
LINTON           N/A    N/A N/A N/A SE10      30.31S
MANDAN         FAIR      46  32  57 S13       30.28R
OAKES            N/A     45  39  81 S10       30.35R
RUGBY          FAIR      46  37  71 SE9G15    30.26R
STANLEY          N/A     41  41 100 SE9       30.20S FOG
TIOGA          FAIR      46  41  81 SE12      30.17S
WATFORD CITY   FAIR      55  32  41 SE13      30.14R
$$

CITY           SKY/WX    TMP DP  RH WIND       PRES   REMARKS
GRAND FORKS    FAIR      44  34  67 S5        30.35R
GRAND FORKS AF FAIR      45  31  58 S6        30.34S
DEVILS LAKE    FAIR      42  33  70 SE10      30.31R
FARGO          FAIR      49  38  65 S9        30.36R
CANDO          FAIR      43  36  75 SE9       30.31R
CAVALIER         N/A     48  34  57 S7        30.33S
GRAFTON        FAIR      41  32  70 S8        30.36S
GWINNER          N/A     45  39  81 SE8       30.36R
LANGDON        FAIR      43  41  93 SE9       30.31S
ROLLA          FAIR      45  36  70 SE8       30.27S
WALHALLA       FAIR      46  30  53 SE7       30.32R
$$

CITY           SKY/WX    TMP DP  RH WIND       PRES   REMARKS
ABERDEEN       MOCLDY    45  38  76 S7        30.35S
MOBRIDGE       CLOUDY    48  36  63 S13       30.27R
BUFFALO          N/A     44  36  73 S29G37    30.10R
RAPID CITY     CLOUDY    39  38  96 SE13      30.22S
GLASGOW        CLEAR     63  33  32 E3        30.06S
SIDNEY         CLEAR     56  36  47 SE8       30.11R
WOLF POINT     CLEAR     62  35  36 SE7       30.07R
GLENDIVE       CLEAR     55  34  45 SE5       30.11R
MILES CITY     CLEAR     58  37  45 MISG      30.06R
BAKER          CLEAR     49  40  71 SE21G26   30.14R
$$

CITY           SKY/WX    TMP DP  RH WIND       PRES   REMARKS
BILLINGS       PTCLDY    58  36  43 E7        30.07S
GREAT FALLS    CLEAR     60  20  21 SW3       30.05S
$$




USA.gov is the U.S. government's official web portal to all federal, state and local government web resources and services.